GW4396 Weather Reports


time (UTC)temp
C
wind
direction
speed
KPH
gust
KPH
rain 1hr
cm
rain 24hr
cm
rain mn
cm
humidity
%
barometer
mb
20260509135451 15 140 6.4 9.7 0.00 0.00 0.00 57 1022.8
20260509134948 15 141 3.2 4.8 0.00 0.00 0.00 59 1022.6
20260509134445 15 177 3.2 3.2 0.00 0.00 0.00 61 1022.5
20260509133937 15 119 4.8 4.8 0.00 0.00 0.00 60 1022.3
20260509133433 15 18 1.6 3.2 0.00 0.00 0.00 62 1022.0
20260509132932 15 143 1.6 1.6 0.00 0.00 0.00 62 1022.0
20260509132429 15 98 3.2 3.2 0.00 0.00 0.00 64 1021.8
20260509131926 15 163 3.2 3.2 0.00 0.00 0.00 62 1021.8
20260509131424 15 144 4.8 4.8 0.00 0.00 0.00 63 1022.0
20260509130920 15 137 1.6 1.6 0.00 0.00 0.00 65 1021.7
20260509130415 15 96 1.6 1.6 0.00 0.00 0.00 63 1021.5
20260509125913 15 134 1.6 3.2 0.00 0.00 0.00 63 1021.7
20260509125409 15 162 1.6 3.2 0.00 0.00 0.00 63 1021.5
20260509124905 14 136 1.6 1.6 0.00 0.00 0.00 63 1021.8
20260509124403 14 111 1.6 1.6 0.00 0.00 0.00 64 1021.4
20260509123900 14 134 1.6 1.6 0.00 0.00 0.00 63 1021.4
20260509123357 14 140 1.6 3.2 0.00 0.00 0.00 62 1021.3
20260509122853 14 127 1.6 3.2 0.00 0.00 0.00 63 1021.0
20260509122350 14 118 1.6 1.6 0.00 0.00 0.00 64 1021.0
20260509121847 14 115 0.0 0.0 0.00 0.00 0.00 63 1020.7
20260509121344 14 114 1.6 3.2 0.00 0.00 0.00 64 1020.6
20260509120842 14 135 3.2 3.2 0.00 0.00 0.00 65 1020.4
20260509120339 13 149 3.2 3.2 0.00 0.00 0.00 64 1020.2
20260509115837 13 117 1.6 1.6 0.00 0.00 0.00 64 1020.4
20260509115334 13 140 4.8 4.8 0.00 0.00 0.00 65 1020.1
20260509114832 13 120 0.0 1.6 0.00 0.00 0.00 67 1020.0
20260509114331 13 112 1.6 1.6 0.00 0.00 0.00 66 1019.9
20260509113829 13 104 1.6 1.6 0.00 0.00 0.00 66 1019.9
20260509113326 13 115 1.6 1.6 0.00 0.00 0.00 67 1019.8
20260509112823 13 127 1.6 1.6 0.00 0.00 0.00 67 1019.8
20260509112320 13 132 3.2 3.2 0.00 0.00 0.00 66 1019.6
20260509111817 13 100 0.0 1.6 0.00 0.00 0.00 66 1019.7
20260509111314 13 108 1.6 1.6 0.00 0.00 0.00 64 1019.3
20260509110812 13 120 1.6 1.6 0.00 0.00 0.00 66 1019.1
20260509110307 13 107 1.6 1.6 0.00 0.00 0.00 66 1019.1
20260509105806 13 110 0.0 0.0 0.00 0.00 0.00 67 1019.2
20260509105306 13 139 1.6 1.6 0.00 0.00 0.00 66 1019.0
20260509104800 13 130 1.6 1.6 0.00 0.00 0.00 66 1018.9
20260509104257 13 89 1.6 1.6 0.00 0.00 0.00 66 1019.1
20260509103755 13 107 0.0 1.6 0.00 0.00 0.00 68 1018.8
20260509103252 13 115 1.6 1.6 0.00 0.00 0.00 67 1018.7
20260509102750 13 113 1.6 3.2 0.00 0.00 0.00 65 1018.5
20260509102247 13 113 1.6 1.6 0.00 0.00 0.00 66 1018.5
20260509101743 13 96 0.0 0.0 0.00 0.00 0.00 65 1018.6
20260509101239 13 117 1.6 3.2 0.00 0.00 0.00 64 1017.9
20260509100737 13 108 1.6 1.6 0.00 0.00 0.00 65 1017.8
20260509100234 13 82 0.0 1.6 0.00 0.00 0.00 66 1017.7
20260509095730 13 123 1.6 1.6 0.00 0.00 0.00 66 1017.4
20260509095228 13 142 3.2 3.2 0.00 0.00 0.00 67 1017.2
20260509094725 13 112 3.2 3.2 0.00 0.00 0.00 69 1016.7
20260509094222 13 136 1.6 1.6 0.00 0.00 0.00 68 1016.7
20260509093720 13 120 1.6 1.6 0.00 0.00 0.00 69 1016.8
20260509093217 13 103 1.6 3.2 0.00 0.00 0.00 69 1017.0
20260509092715 13 136 3.2 3.2 0.00 0.00 0.00 73 1016.7
20260509092213 12 123 3.2 3.2 0.00 0.00 0.00 76 1016.9
20260509091711 12 123 3.2 3.2 0.00 0.00 0.00 77 1016.6
20260509091206 12 100 0.0 0.0 0.00 0.00 0.00 81 1016.2
20260509090704 13 123 3.2 3.2 0.00 0.00 0.00 79 1016.4
20260509090201 13 86 0.0 1.6 0.00 0.00 0.00 78 1016.4
20260509085659 13 99 0.0 0.0 0.00 0.00 0.00 77 1016.5
20260509085155 13 115 1.6 3.2 0.00 0.00 0.00 75 1015.9
20260509084652 13 129 1.6 1.6 0.00 0.00 0.00 77 1015.9
20260509084148 12 130 1.6 1.6 0.00 0.00 0.00 79 1015.3
20260509083646 12 116 0.0 0.0 0.00 0.00 0.00 80 1015.2
20260509083137 12 103 0.0 0.0 0.00 0.00 0.00 80 1015.6
20260509082634 12 146 1.6 1.6 0.00 0.00 0.00 81 1015.4
20260509082131 12 110 0.0 0.0 0.00 0.00 0.00 81 1014.8
20260509081628 12 96 0.0 0.0 0.00 0.00 0.00 83 1015.1
20260509081125 12 116 0.0 1.6 0.00 0.00 0.00 82 1014.9
20260509080623 12 104 0.0 0.0 0.00 0.00 0.00 82 1014.8
20260509080121 12 132 3.2 3.2 0.00 0.00 0.00 82 1014.4
20260509075619 12 114 3.2 3.2 0.00 0.00 0.00 82 1014.3
20260509075116 12 122 1.6 1.6 0.00 0.00 0.00 82 1014.0
20260509074613 12 140 3.2 3.2 0.00 0.00 0.00 81 1014.6
20260509074109 12 117 1.6 1.6 0.00 0.00 0.00 82 1014.6
20260509073606 12 101 1.6 1.6 0.00 0.00 0.00 81 1014.5
20260509073102 12 143 1.6 3.2 0.00 0.00 0.00 81 1014.4
20260509072559 12 125 1.6 1.6 0.00 0.00 0.00 81 1014.4
20260509072056 12 109 1.6 1.6 0.00 0.00 0.00 80 1014.6
20260509071553 12 129 1.6 1.6 0.00 0.00 0.00 79 1014.7
20260509071050 12 117 0.0 1.6 0.00 0.00 0.00 79 1014.6
20260509070547 12 152 3.2 3.2 0.00 0.00 0.00 79 1014.4
20260509070038 12 152 3.2 3.2 0.00 0.00 0.00 79 1014.5
20260509065533 12 129 3.2 3.2 0.00 0.00 0.00 80 1014.7
20260509065030 12 106 0.0 0.0 0.00 0.00 0.00 80 1014.5
20260509064527 12 116 1.6 1.6 0.00 0.00 0.00 80 1014.4
20260509064025 12 109 0.0 0.0 0.00 0.00 0.00 80 1014.2
20260509063520 12 146 1.6 3.2 0.00 0.00 0.00 80 1014.2
20260509063018 12 133 3.2 3.2 0.00 0.00 0.00 79 1014.1
20260509062515 12 151 3.2 3.2 0.00 0.00 0.00 80 1014.0
20260509062013 12 123 1.6 1.6 0.00 0.00 0.00 80 1014.3
20260509061509 12 122 3.2 3.2 0.00 0.00 0.00 80 1013.9
20260509061007 12 142 1.6 3.2 0.00 0.00 0.00 81 1014.3
20260509060504 12 121 1.6 1.6 0.00 0.00 0.00 82 1014.3
20260509055959 12 142 3.2 3.2 0.00 0.00 0.00 82 1014.2
20260509055455 12 117 1.6 3.2 0.00 0.00 0.00 82 1014.4
20260509054951 12 147 1.6 1.6 0.00 0.00 0.00 84 1014.5
20260509054448 12 138 1.6 1.6 0.00 0.00 0.00 84 1014.6
20260509053946 12 111 0.0 0.0 0.00 0.00 0.00 84 1014.8
20260509053444 11 105 0.0 0.0 0.00 0.00 0.00 85 1014.9
20260509052941 11 104 0.0 0.0 0.00 0.00 0.00 86 1015.1
20260509052439 11 109 0.0 0.0 0.00 0.00 0.00 85 1014.8
20260509051936 11 109 0.0 0.0 0.00 0.00 0.00 85 1015.1
20260509051434 11 109 0.0 0.0 0.00 0.00 0.00 85 1015.0
20260509050931 11 109 0.0 0.0 0.00 0.00 0.00 84 1014.9
20260509050427 12 107 0.0 0.0 0.00 0.00 0.00 83 1014.7
20260509045924 12 109 1.6 1.6 0.00 0.00 0.00 83 1014.7
20260509045421 12 119 0.0 0.0 0.00 0.00 0.00 83 1014.7
20260509044918 12 110 0.0 0.0 0.00 0.00 0.00 83 1014.7
20260509044416 12 110 0.0 0.0 0.00 0.00 0.00 83 1014.8
20260509043913 12 111 0.0 0.0 0.00 0.00 0.00 84 1014.5
20260509043408 12 132 1.6 1.6 0.00 0.00 0.00 83 1014.4
20260509042904 12 154 1.6 3.2 0.00 0.00 0.00 82 1014.6
20260509042402 12 121 1.6 1.6 0.00 0.00 0.00 82 1014.6
20260509041858 12 108 0.0 0.0 0.00 0.00 0.00 82 1014.6
20260509041355 13 114 0.0 0.0 0.00 0.00 0.00 81 1014.8
20260509040853 13 105 0.0 0.0 0.00 0.00 0.00 80 1014.9
20260509040350 13 107 0.0 0.0 0.00 0.00 0.00 78 1014.8
20260509035841 13 110 0.0 0.0 0.00 0.00 0.00 76 1014.9
20260509035338 13 110 0.0 0.0 0.00 0.00 0.00 76 1015.3
20260509034834 13 104 0.0 0.0 0.00 0.00 0.00 79 1015.1
20260509034333 13 98 0.0 0.0 0.00 0.00 0.00 83 1015.1
20260509033829 13 106 0.0 0.0 0.00 0.00 0.00 80 1015.0
20260509033326 13 104 0.0 0.0 0.00 0.00 0.00 81 1014.8
20260509032823 12 102 0.0 0.0 0.00 0.00 0.00 83 1014.8
20260509032320 12 102 0.0 0.0 0.00 0.00 0.00 84 1014.5
20260509031818 12 97 0.0 0.0 0.00 0.00 0.00 84 1014.3
20260509031315 12 98 0.0 0.0 0.00 0.00 0.00 85 1014.6
20260509030813 12 116 1.6 1.6 0.00 0.00 0.00 86 1014.4
20260509030310 12 150 3.2 3.2 0.00 0.00 0.00 86 1014.4
20260509025807 12 148 0.0 1.6 0.00 0.10 0.10 88 1014.5
20260509025306 12 117 1.6 1.6 0.00 0.10 0.10 89 1014.6
20260509024758 11 120 0.0 0.0 0.00 0.10 0.10 91 1014.4
20260509024255 11 114 0.0 1.6 0.00 0.10 0.10 92 1014.8
20260509023751 11 107 0.0 0.0 0.00 0.10 0.10 94 1014.8
20260509023249 10 100 0.0 0.0 0.00 0.10 0.10 97 1014.3
20260509022745 10 87 0.0 0.0 0.00 0.10 0.10 98 1014.3
20260509022243 10 82 0.0 0.0 0.00 0.10 0.10 97 1014.1
20260509021739 10 86 0.0 0.0 0.00 0.10 0.10 97 1014.2
20260509021237 10 80 0.0 0.0 0.00 0.10 0.10 97 1013.7
20260509020734 10 80 0.0 0.0 0.00 0.10 0.10 97 1013.9
20260509020232 10 81 0.0 0.0 0.00 0.10 0.10 98 1014.1
20260509015730 10 85 0.0 0.0 0.00 0.10 0.10 97 1013.9
20260509015228 10 84 0.0 0.0 0.00 0.10 0.10 97 1014.3
20260509014724 10 77 0.0 0.0 0.00 0.10 0.10 98 1014.1
20260509014221 10 86 0.0 0.0 0.00 0.10 0.10 97 1013.9
20260509013718 10 85 0.0 0.0 0.00 0.10 0.10 97 1014.2
20260509013213 10 79 0.0 0.0 0.00 0.10 0.10 97 1014.0
20260509012710 10 83 0.0 0.0 0.00 0.10 0.10 97 1014.0
20260509012207 10 80 0.0 0.0 0.00 0.10 0.10 97 1013.7
20260509011704 10 85 0.0 0.0 0.00 0.10 0.10 97 1013.8
20260509011202 11 84 0.0 0.0 0.00 0.10 0.10 97 1013.9
20260509010700 11 59 1.6 1.6 0.00 0.10 0.10 97 1014.2
20260509010155 11 84 0.0 0.0 0.00 0.10 0.10 97 1013.3
20260509005653 11 82 0.0 0.0 0.00 0.10 0.10 97 1013.6
20260509005150 11 82 0.0 1.6 0.00 0.10 0.10 97 1013.5
20260509004645 11 82 0.0 0.0 0.00 0.10 0.10 96 1013.7
20260509004142 11 82 0.0 0.0 0.00 0.10 0.10 96 1013.4
20260509003641 11 79 0.0 0.0 0.00 0.10 0.10 96 1013.1
20260509003137 11 79 0.0 0.0 0.00 0.10 0.10 96 1013.1
20260509002629 11 78 0.0 0.0 0.00 0.10 0.10 96 1013.1
20260509002126 11 77 0.0 0.0 0.00 0.10 0.10 96 1013.4
20260509001624 11 70 0.0 0.0 0.00 0.10 0.10 96 1012.9
20260509001119 11 70 0.0 0.0 0.00 0.10 0.10 95 1012.9
20260509000618 11 70 0.0 0.0 0.00 0.10 0.10 96 1013.2
20260509000114 11 69 0.0 0.0 0.00 0.10 0.10 96 1013.2
20260508235612 11 35 1.6 1.6 0.00 0.10 0.10 95 1013.3
20260508235108 11 77 0.0 0.0 0.00 0.10 0.10 95 1013.2
20260508234605 12 74 0.0 0.0 0.00 0.10 0.10 95 1012.9
20260508234102 12 61 0.0 1.6 0.00 0.10 0.10 95 1013.1
20260508233602 12 90 0.0 0.0 0.00 0.10 0.10 95 1012.4
20260508233059 12 77 0.0 0.0 0.00 0.10 0.10 94 1012.6
20260508232555 12 77 0.0 0.0 0.00 0.10 0.10 94 1012.7
20260508232052 12 88 0.0 0.0 0.00 0.10 0.10 93 1012.1
20260508231550 12 91 0.0 0.0 0.00 0.10 0.10 93 1012.2
20260508231047 12 89 0.0 0.0 0.00 0.10 0.10 94 1012.6
20260508230543 12 92 0.0 0.0 0.00 0.10 0.10 94 1012.5
20260508230040 12 91 1.6 1.6 0.00 0.10 0.10 92 1012.9
20260508225537 13 65 0.0 0.0 0.00 0.10 0.10 92 1012.9
20260508225034 13 36 1.6 1.6 0.00 0.10 0.10 91 1013.4
20260508224532 13 88 1.6 1.6 0.00 0.10 0.10 90 1013.2
20260508224029 13 93 0.0 0.0 0.00 0.10 0.10 89 1013.6
20260508223527 13 95 0.0 0.0 0.00 0.10 0.10 88 1013.6
20260508223024 14 91 1.6 1.6 0.00 0.10 0.10 86 1013.8
20260508222521 15 94 0.0 0.0 0.00 0.10 0.10 84 1013.8
20260508222018 15 60 1.6 1.6 0.00 0.10 0.10 80 1013.8
20260508221514 16 101 0.0 0.0 0.00 0.10 0.10 76 1013.8
20260508221010 16 111 0.0 0.0 0.00 0.10 0.10 73 1013.9
20260508220507 16 120 1.6 1.6 0.00 0.10 0.10 72 1013.7
20260508220003 16 110 0.0 0.0 0.00 0.10 0.10 71 1013.5
20260508215500 16 89 0.0 0.0 0.00 0.10 0.10 73 1013.5
20260508214956 16 100 0.0 0.0 0.00 0.10 0.10 71 1013.5
20260508214454 16 107 0.0 0.0 0.00 0.10 0.10 69 1013.6
20260508213950 16 110 1.6 4.8 0.00 0.10 0.10 70 1013.7
20260508213448 16 102 1.6 1.6 0.00 0.10 0.10 69 1014.0
20260508212943 16 96 1.6 1.6 0.00 0.10 0.10 68 1013.6
20260508212440 17 107 0.0 1.6 0.00 0.10 0.10 68 1013.9
20260508211936 17 172 1.6 1.6 0.00 0.10 0.10 67 1013.6
20260508211431 -17 35 1.6 1.6 0.00 0.10 0.10 1013.8
20260508210929 -17 35 1.6 1.6 0.00 0.10 0.10 1013.6
20260508210426 -17 35 1.6 1.6 0.00 0.10 0.10 1013.5
20260508205921 -17 86 1.6 1.6 0.00 0.10 0.10 1013.4
20260508205418 -17 118 1.6 1.6 0.00 0.10 0.10 1013.4
20260508204914 -17 119 1.6 1.6 0.00 0.10 0.10 1013.0
20260508204412 -17 84 0.0 1.6 0.00 0.10 0.10 1013.3
20260508203907 -17 53 1.6 3.2 0.00 0.10 0.10 1013.4
20260508203404 17 92 1.6 1.6 0.00 0.10 0.10 66 1013.0
20260508202859 18 111 1.6 1.6 0.00 0.10 0.10 65 1013.0
20260508202357 18 95 1.6 1.6 0.00 0.10 0.10 64 1013.2
20260508201854 18 184 1.6 4.8 0.00 0.10 0.10 64 1013.0
20260508201351 18 118 3.2 3.2 0.00 0.10 0.10 63 1012.8
20260508200847 18 169 1.6 1.6 0.00 0.10 0.10 63 1012.9
20260508200344 18 111 4.8 8.0 0.00 0.10 0.10 63 1013.0
20260508195839 18 138 1.6 3.2 0.00 0.10 0.10 62 1013.1
20260508195337 18 120 3.2 3.2 0.00 0.10 0.10 62 1013.4
20260508194833 19 240 4.8 4.8 0.00 0.10 0.10 61 1012.9
20260508194330 18 44 0.0 1.6 0.00 0.10 0.10 62 1013.3
20260508193827 18 154 1.6 3.2 0.00 0.10 0.10 59 1013.3
20260508193324 18 139 1.6 1.6 0.00 0.10 0.10 59 1012.8
20260508192820 19 284 1.6 3.2 0.00 0.10 0.10 55 1012.9
20260508192317 20 217 9.7 12.9 0.00 0.10 0.10 52 1012.8
20260508191814 20 174 3.2 3.2 0.00 0.10 0.10 53 1012.8
20260508191311 -17 143 3.2 3.2 0.00 0.10 0.10 1012.9
20260508190804 -17 220 3.2 3.2 0.00 0.10 0.10 1013.0
20260508190259 -17 119 1.6 1.6 0.00 0.10 0.10 1012.9
20260508185756 21 128 3.2 3.2 0.00 0.10 0.10 54 1012.8
20260508185254 20 68 1.6 1.6 0.00 0.10 0.10 53 1012.9
20260508184751 20 102 1.6 1.6 0.00 0.10 0.10 54 1012.9
20260508184248 20 241 1.6 3.2 0.00 0.10 0.10 51 1012.8
20260508183745 21 257 3.2 3.2 0.00 0.10 0.10 53 1012.9
20260508183241 21 149 3.2 3.2 0.00 0.10 0.10 55 1012.9
20260508182737 20 124 1.6 3.2 0.00 0.10 0.10 52 1012.9
20260508182234 20 267 3.2 3.2 0.00 0.10 0.10 54 1013.0
20260508181730 21 232 8.0 9.7 0.00 0.10 0.10 52 1013.0
20260508181227 21 126 1.6 1.6 0.00 0.10 0.10 53 1013.1
20260508180723 21 82 0.0 1.6 0.00 0.10 0.10 53 1013.0
20260508180220 20 110 1.6 3.2 0.00 0.10 0.10 53 1013.2
20260508175717 21 316 1.6 3.2 0.00 0.10 0.10 52 1013.1
20260508175214 21 318 1.6 3.2 0.00 0.10 0.10 53 1013.2
20260508174712 21 168 3.2 3.2 0.00 0.10 0.10 55 1013.2
20260508174209 21 35 0.0 1.6 0.00 0.10 0.10 54 1013.1
20260508173705 21 104 0.0 1.6 0.00 0.10 0.10 54 1013.0
20260508173201 21 93 3.2 3.2 0.00 0.10 0.10 53 1013.1
20260508172658 22 137 3.2 4.8 0.00 0.10 0.10 52 1013.3
20260508172155 21 160 3.2 8.0 0.00 0.10 0.10 54 1013.4
20260508171651 21 108 3.2 3.2 0.00 0.10 0.10 54 1013.4
20260508171147 21 85 1.6 1.6 0.00 0.10 0.10 51 1013.6
20260508170645 21 98 0.0 1.6 0.00 0.10 0.10 49 1013.7
20260508170142 21 108 0.0 1.6 0.00 0.10 0.10 46 1013.6
20260508165634 21 147 1.6 1.6 0.00 0.10 0.10 44 1013.6
20260508165131 21 218 4.8 8.0 0.00 0.10 0.10 48 1013.7
20260508164627 21 66 1.6 3.2 0.00 0.10 0.10 50 1013.6
20260508164124 21 107 1.6 1.6 0.00 0.10 0.10 53 1013.7
20260508163621 21 123 3.2 3.2 0.00 0.10 0.10 52 1013.8
20260508163118 20 126 1.6 3.2 0.00 0.10 0.10 51 1013.8
20260508162614 20 97 1.6 3.2 0.00 0.10 0.10 52 1014.1
20260508162112 21 69 0.0 1.6 0.00 0.10 0.10 49 1014.1
20260508161608 21 104 3.2 4.8 0.00 0.10 0.10 50 1014.2
20260508161106 20 70 1.6 1.6 0.00 0.10 0.10 52 1014.2
20260508160605 21 144 4.8 4.8 0.00 0.10 0.10 51 1014.3
20260508155558 19 127 1.6 3.2 0.00 0.10 0.10 55 1014.3
20260508155055 20 115 1.6 3.2 0.00 0.10 0.10 56 1014.6
20260508154552 20 96 1.6 1.6 0.00 0.10 0.10 56 1014.5
20260508154049 20 109 1.6 3.2 0.00 0.10 0.10 55 1014.9
20260508153546 20 170 3.2 4.8 0.00 0.10 0.10 51 1014.8
20260508153042 19 89 1.6 3.2 0.00 0.10 0.10 53 1014.9
20260508152540 20 51 1.6 3.2 0.00 0.10 0.10 53 1015.1
20260508152034 20 109 1.6 3.2 0.00 0.10 0.10 53 1015.0
20260508151532 19 134 1.6 1.6 0.00 0.10 0.10 61 1015.0
20260508151028 19 133 3.2 3.2 0.00 0.10 0.10 59 1015.2
20260508150526 19 110 1.6 1.6 0.00 0.10 0.10 60 1015.1
20260508150021 20 115 0.0 1.6 0.00 0.10 0.10 58 1015.3
20260508145518 20 59 1.6 1.6 0.00 0.10 0.10 57 1015.2
20260508145014 19 172 4.8 8.0 0.00 0.10 0.10 56 1015.3
20260508144512 20 75 1.6 1.6 0.00 0.10 0.10 59 1015.7
20260508144009 19 70 0.0 1.6 0.00 0.10 0.10 63 1015.6
20260508143507 19 301 3.2 4.8 0.00 0.10 0.10 62 1015.3
20260508143003 19 127 1.6 1.6 0.00 0.10 0.10 61 1015.4
20260508142500 18 160 1.6 3.2 0.00 0.10 0.10 60 1015.6
20260508141956 18 131 3.2 4.8 0.00 0.10 0.10 61 1015.4
20260508141453 16 90 1.6 3.2 0.00 0.10 0.10 60 1015.3
20260508140951 -17 124 1.6 1.6 0.00 0.10 0.10 1015.2
20260508140448 -17 102 1.6 3.2 0.00 0.10 0.10 1015.4
20260508135943 -17 117 1.6 3.2 0.00 0.10 0.10 1015.3